Hourly Data Report for December 22, 2003

All times are specified in Local Standard Time (LST). Add 1 hour to adjust for Daylight Saving Time where and when it is observed.

TORONTO CITY
ONTARIO

43°40'00.000" N
79°24'00.000" W
112.50 m
6158355
71508
XTO

Download Data

Hourly Data (December 2003)
Hourly Data Report for December 22, 2003
TIME Temp Definition
°C
Dew Point Definition
°C
Rel Hum Definition
%
Wind Dir Definition
10's deg

Wind Spd Definition
km/h
Visibility Definition
km
Stn Press Definition
kPa
Hmdx Definition


Wind Chill Definition


Weather Definition


00:00 4.8 -1.4 64 LegendMM LegendMM LegendMM 99.68     LegendNANA
01:00 4.9 -1.4 64 LegendMM LegendMM LegendMM 99.63     LegendNANA
02:00 4.8 -1.6 63 LegendMM LegendMM LegendMM 99.62     LegendNANA
03:00 5.2 -1.8 61 LegendMM LegendMM LegendMM 99.65     LegendNANA
04:00 5.4 -1.5 61 LegendMM LegendMM LegendMM 99.63     LegendNANA
05:00 5.2 -1.3 63 LegendMM LegendMM LegendMM 99.64     LegendNANA
06:00 5.2 -0.8 65 LegendMM LegendMM LegendMM 99.65     LegendNANA
07:00 5.2 -0.6 66 LegendMM LegendMM LegendMM 99.68     LegendNANA
08:00 5.1 -0.2 69 LegendMM LegendMM LegendMM 99.71     LegendNANA
09:00 5.5 0.1 68 LegendMM LegendMM LegendMM 99.80     LegendNANA
10:00 6.1 0.3 66 LegendMM LegendMM LegendMM 99.80     LegendNANA
11:00 6.5 0.7 66 LegendMM LegendMM LegendMM 99.81     LegendNANA
12:00 6.5 0.9 67 LegendMM LegendMM LegendMM 99.77     LegendNANA
13:00 6.8 1.1 67 LegendMM LegendMM LegendMM 99.77     LegendNANA
14:00 6.6 1.3 69 LegendMM LegendMM LegendMM 99.70     LegendNANA
15:00 6.5 1.2 69 LegendMM LegendMM LegendMM 99.83     LegendNANA
16:00
17:00
18:00 6.5 1.5 70 LegendMM LegendMM LegendMM 99.91     LegendNANA
19:00 6.1 1.7 73 LegendMM LegendMM LegendMM 99.93     LegendNANA
20:00 5.9 1.8 75 LegendMM LegendMM LegendMM 99.99     LegendNANA
21:00 5.8 1.9 76 LegendMM LegendMM LegendMM 99.97     LegendNANA
22:00 5.8 2.1 77 LegendMM LegendMM LegendMM 99.96     LegendNANA
23:00 5.5 2.2 79 LegendMM LegendMM LegendMM 99.95     LegendNANA

Notes on Data Quality.

Legend

  • E = Estimated
  • M = Missing
  • NA = Not Available*
  • [empty] = Indicates an unobserved value
Date modified: